Regional Weather Roundup
Issued by NWS

Home | Current Version | Previous Version | Text Only | Print | Product List | Glossary Off
Versions: 1 2 3 4 5 6 7 8 9 10 11 12 13 14 15 16 17 18 19 20 21 22 23 24 25 26 27 28 29 30 31 32 33 34 35 36 37 38 39 40 41 42 43 44 45 46 47 48 49 50

000
ASUS43 KMKX 291911
RWRWI

WISCONSIN REGIONAL WEATHER ROUNDUP
NATIONAL WEATHER SERVICE MILWAUKEE/SULLIVAN WI
200 PM CDT WED MAR 29 2017

NOTE: "FAIR" INDICATES FEW OR NO CLOUDS BELOW 12,000 FEET WITH NO
SIGNIFICANT WEATHER AND/OR OBSTRUCTIONS TO VISIBILITY.

WIZ001-002-006>008-014>016-023>028-292000-
NORTHWEST WISCONSIN

CITY           SKY/WX    TMP DP  RH WIND       PRES   REMARKS
SUPERIOR ARPT  CLOUDY    36  32  87 E13G20    30.31F WCI  27
ASHLAND        PTSUNNY   40  32  73 N8        30.31F WCI  34
HAYWARD        CLOUDY    51  28  41 E6        30.25F
SIREN          CLOUDY    51  30  45 CALM      30.24F
CUMBERLAND     CLOUDY    46  30  53 E5        30.24F
RICE LAKE      CLOUDY    49  32  52 CALM      30.26F
CHETEK         CLOUDY    48  33  56 SE10      30.25F
LADYSMITH      CLOUDY    51  32  47 E6        30.27F
EAU CLAIRE     CLOUDY    50  32  50 E6        30.24F
MENOMONIE      CLOUDY    49  32  52 E8        30.25S
NEW RICHMOND   CLOUDY    49  32  53 SE6       30.22F
OSCEOLA        CLOUDY    51  34  53 E7        30.25F
$$

WIZ003>005-009-010-017-018-292000-
NORTH CENTRAL WISCONSIN

CITY           SKY/WX    TMP DP  RH WIND       PRES   REMARKS
MANITOWISH WTR CLOUDY    47  29  50 S7        30.28S
ARBOR VITAE    CLOUDY    49  31  49 CALM      30.27S
WOODRUFF       CLOUDY    49  31  49 CALM      30.27S
RHINELANDER    CLOUDY    48  30  49 E9        30.29R
EAGLE RIVER    CLOUDY    46  27  46 E7        30.28S
LAND O LAKES   PTSUNNY   46  27  47 E5        30.31R
PHILLIPS       CLOUDY    49  31  49 SE5       30.26S
TOMAHAWK       CLOUDY    47  29  50 E3        30.28F
MEDFORD        CLOUDY    45  31  59 E5        30.26F
MERRILL        CLOUDY    46  30  53 SE9       30.28F
$$

WIZ029-030-035-036-043>047-292000-
CENTRAL WISCONSIN

CITY           SKY/WX    TMP DP  RH WIND       PRES   REMARKS
WAUSAU         CLOUDY    46  29  51 E7        30.27F
MOSINEE        PTSUNNY   45  30  57 E12       30.29S
MARSHFIELD     CLOUDY    46  32  58 E12       30.26S
STEVENS POINT  CLOUDY    44  29  56 E10       30.29S
WAUPACA        CLOUDY    47  33  57 E9        30.31R
WAUTOMA        CLOUDY    45  36  70 NE14      30.28F
WISC RAPIDS    CLOUDY    47  33  58 E9        30.28S
CAMP DOUGLAS   LGT RAIN  45  36  70 E6        30.26S
$$

WIZ011>013-019>022-031-037>040-048>050-292000-
NORTHEAST WISCONSIN

CITY           SKY/WX    TMP DP  RH WIND       PRES   REMARKS
ANTIGO         CLOUDY    43  30  59 SE7       30.30S
SHAWANO        CLOUDY    46  33  61 NE8       30.33F
OCONTO         CLOUDY    42  30  64 E6        30.34F
STURGEON BAY   PTSUNNY   42  29  59 VRB6      30.34R
GREEN BAY      CLOUDY    42  37  82 NE13      30.32F
MANITOWOC      PTSUNNY   38  34  85 N7        30.32F WCI  33
APPLETON       CLOUDY    43  32  65 E7        30.29F
CLINTONVILLE   CLOUDY    45  30  57 E10       30.31F
OSHKOSH        CLOUDY    45  38  76 NE10      30.29S
$$

WIZ032>034-041-042-053>061-292000-
SOUTHWEST WISCONSIN

CITY           SKY/WX    TMP DP  RH WIND       PRES   REMARKS
LA CROSSE      LGT RAIN  46  36  68 NE7       30.24F
SPARTA         RAIN      42  38  84 E6        30.27S
VIROQUA        CLOUDY    43  36  75 E3        30.22F
BOSCOBEL       CLOUDY    48  34  58 E9G16     30.20F
PRAIRIE DU CHI CLOUDY    47  32  56 NE9       30.18F
PLATTEVILLE    MOSUNNY   46  37  70 E17       30.16F
$$

WIZ056-057-062-063-064-067-068-292000-
SOUTH CENTRAL WISCONSIN

CITY           SKY/WX    TMP DP  RH WIND       PRES   REMARKS
REEDSBURG      CLOUDY    44  37  76 E7        30.25S
BARABOO/DELLS  CLOUDY    45  37  73 E8        30.25S
LONE ROCK      CLOUDY    48  36  63 NE13      30.21F
MINERAL POINT  PTSUNNY   46  36  66 E15G21    30.16F
MADISON        CLOUDY    48  34  58 E14       30.23F
MIDDLETON      PTSUNNY   48  37  64 E10G16    30.23F
WATERTOWN      CLOUDY    48  33  57 E8        30.26R
MONROE         MOSUNNY   45  34  65 E16G24    30.18F
JANESVILLE     CLOUDY    48  36  61 E13G18    30.22S
$$

WIZ051-052-058>065-066-070>072-292000-
SOUTHEAST WISCONSIN

CITY           SKY/WX    TMP DP  RH WIND       PRES   REMARKS
MILWAUKEE      CLOUDY    44  35  70 NE9       30.27F
WAUKESHA       MOSUNNY   43  32  65 E10       30.28S
MILWAUKEE/TIMM SUNNY     45  32  61 NE7       30.28F
RACINE         CLOUDY    43  34  70 NE9       30.28F
KENOSHA        CLOUDY    43  34  70 E10       30.26F
FOND DU LAC    CLOUDY    47  37  68 E10       30.29R
SHEBOYGAN      CLOUDY    40  36  86 NE13      30.30F WCI  32
WEST BEND      CLOUDY    43  37  81 NE9       30.29R
JUNEAU         CLOUDY    46  33  61 E10       30.27S
$$

LSZ147-162-292000-
LAKE SUPERIOR

STATION/POSITION TIME  TEMP    WIND        PRES    WAVE
                       AIR SEA DIR/SP/G            HT/PER
                 (UTC) (F)     (DEG/KT/KT) (MB)    (FT/S)
DEVILS ISLAND    1800   34      70/ 13/ 16 1028.3F
PORT WING        1840   35      40/ 16/ 20 1026.4S
SAXON HARBOR     1840   35     310/  4/  5 1026.1F
$$

LMZ867-665-643>646-292000-
LAKE MICHIGAN

STATION/POSITION TIME  TEMP    WIND        PRES    WAVE
                       AIR SEA DIR/SP/G            HT/PER
                 (UTC) (F)     (DEG/KT/KT) (MB)    (FT/S)
CHAMBERS ISLAND  1840   34      20/  7/ 10 1027.4R
NORTHPORT PIER   1840   34      80/  5/  8 1027.4F
SISTER BAY       1651   46      40/  8/ 11   N/A
KEWAUNEE LAKESHO 1848   34      30/ 10/ 13 1026.7R
SHEBOYGAN LAKESH 1900   35      10/ 16/ 17 1026.7F
PORT WASHINGTON  1840   40      40/ 14/ 16 1026.8F
MILWAUKEE LAKESH 1850   39      20/ 12/ 14   N/A
KENOSHA   LAKESH 1900   38     360/  6/  8 1025.1
$$

TC  - TEMPERATURE IN CELSIUS
VSB - VISIBILITY IN STATUTE MILES
WCI - WIND CHILL INDEX
HX  - HEAT INDEX




USA.gov is the U.S. government's official web portal to all federal, state and local government web resources and services.